PST,Max TemperatureF,Mean TemperatureF,Min TemperatureF,Max Dew PointF,MeanDew PointF,Min DewpointF,Max Humidity, Mean Humidity, Min Humidity, Max Sea Level PressureIn, Mean Sea Level PressureIn, Min Sea Level PressureIn, Max VisibilityMiles, Mean VisibilityMiles, Min VisibilityMiles, Max Wind SpeedMPH, Mean Wind SpeedMPH, Max Gust SpeedMPH,PrecipitationIn, CloudCover, Events, WindDirDegrees
2013-2-1,77,58,39,42,39,34,85,54,23,30.19,30.14,30.09,10,10,10,8,3,9,0.00,0,,229
2013-2-2,79,63,47,46,40,31,80,50,19,30.22,30.15,30.10,10,10,10,7,2,9,0.00,0,Rain,6
2013-2-3,79,70,61,48,44,41,64,46,27,30.08,30.02,29.95,10,10,10,17,6,22,T,4,Rain,339
2013-2-4,83,64,44,44,39,31,71,43,15,30.03,29.97,29.89,10,10,10,14,5,21,0.00,0,,336
2013-2-5,78,60,42,44,39,34,76,48,19,29.99,29.92,29.84,10,10,9,9,4,13,0.00,0,,8
2013-2-6,81,64,47,44,38,24,76,45,13,30.02,29.91,29.85,10,9,6,14,6,17,0.00,0,,317
2013-2-7,74,56,38,45,38,29,86,53,19,30.06,29.95,29.84,10,8,5,12,4,15,0.00,0,,9
2013-2-8,65,60,55,37,33,28,47,37,27,29.90,29.85,29.83,10,8,2,33,20,45,0.00,2,,308
2013-2-9,64,49,33,34,30,27,82,54,25,30.03,29.95,29.86,10,10,10,12,4,15,0.00,0,,317
2013-2-10,63,49,34,36,31,27,76,52,27,30.04,29.99,29.93,10,10,10,13,4,17,0.00,0,,314
2013-2-11,65,56,47,35,18,2,56,33,10,30.22,30.11,30.00,10,10,7,21,11,26,0.00,1,,328
2013-2-12,69,49,29,31,18,9,58,34,9,30.33,30.25,30.19,10,10,10,12,2,15,0.00,0,,327
2013-2-13,73,51,29,28,24,21,72,44,15,30.25,30.17,30.08,10,10,10,12,3,16,0.00,0,,134
2013-2-14,81,59,37,32,26,20,70,40,10,30.17,30.11,30.04,10,10,10,14,5,17,0.00,0,,345
2013-2-15,80,60,39,29,23,14,45,27,8,30.25,30.20,30.15,10,10,10,10,5,15,0.00,0,,321
2013-2-16,81,59,37,28,21,9,53,30,7,30.22,30.09,29.94,10,10,10,9,4,13,0.00,0,,326
2013-2-17,81,57,33,36,26,17,69,39,9,29.93,29.86,29.78,10,10,10,9,4,12,0.00,0,,320
2013-2-18,76,57,38,41,33,27,70,43,16,30.00,29.90,29.83,10,10,10,13,5,17,0.00,0,,325
2013-2-19,68,59,50,42,35,30,63,46,29,29.84,29.75,29.64,10,10,8,20,11,26,0.00,0,,324
2013-2-20,65,54,42,42,33,28,83,55,27,29.91,29.76,29.64,10,10,10,21,9,28,T,2,,329
2013-2-21,65,52,38,35,30,24,76,51,26,30.06,29.97,29.92,10,10,10,18,5,23,0.00,1,,299
2013-2-22,70,50,30,32,26,20,70,43,15,30.18,30.12,30.07,10,10,10,10,3,20,0.00,0,,70
2013-2-23,70,52,33,37,29,14,76,48,20,30.12,29.95,29.77,10,10,7,12,4,15,0.00,0,,261
2013-2-24,69,60,51,18,5,-2,22,14,6,30.19,30.11,29.99,10,10,10,26,11,33,0.00,0,,328
2013-2-25,71,51,31,28,15,8,38,24,9,30.23,30.13,30.01,10,10,10,12,5,16,0.00,0,,41
2013-2-26,77,54,31,27,16,5,59,33,7,30.17,30.04,29.98,10,10,10,13,4,18,0.00,0,,327
2013-2-27,74,54,34,24,12,2,41,24,6,30.30,30.24,30.19,10,10,10,16,5,21,0.00,0,,328
2013-2-28,80,58,35,25,14,4,40,23,6,30.34,30.28,30.22,10,10,10,10,5,15,0.00,0,,327